Meteopurmerend
purmerend
Purmerend - Baaienwijk



My webcam  My webcam


Onweer radar Meer informatie blitzortung!


Regen radar Meer informatie rain snow radar


Bezoek onze andere website:

CandyAppleRed WebdesignWebdesign Purmerend Candy Apple Red

MeteopurmerendBlog

Template documentation
and downloads



We konden geen weer-waarchuwingen ophalen. Ga rechtstreeks naar de Meteoalarm site : www.meteoalarm.eu en controleer daar .

15 daagse weersverwachting Tønsberg (NO)

  • Overzicht
  • Per uur
  • 15 dagen
  • Extra
  • Vergelijk
  • Kaarten
  • Dagkaart
  • Meer »
  • Info
  • Statistieken
  • Directe link
    Temp 6h Neerslag Wind  
 05:39     21:08    Daglengte: 15:29 Morgen
02:00
17°
 
2
08:00
19°
 
3
14:00
26°
 
1
20:00
21°
4.7 mm
2
 05:41     21:05    Daglengte: 15:24 Dinsdag 16 Aug
02:00
20°
16.6 mm
3
08:00
19°
9.6 mm
2
warningclass
14:00
20°
10.4 mm
3
warningclass
20:00
19°
5.4 mm
3
 05:44     21:02    Daglengte: 15:18 Woensdag 17 Aug
02:00
18°
4.0 mm
4
08:00
18°
1.4 mm
4
14:00
20°
6.7 mm
4
Locatie info
Region: Vestfold
Latitude: 59.2659°N
Longitude: 10.4076°E
16 masl
Postcode: 3126
Temp/Neerslag /Baro Onweer/Dauwpunt
    Temp Baro 1h Neerslag Dauwpunt Wind UV Bewolking  
 05:37     21:10    Daglengte: 15:33 Vandaag
21:00
21°
1013.2 hPa   14.2°
1
Windvlaag: 3.3 m/s
85%
22:00
20°
1013.1 hPa   15.5°
1
Windvlaag: 0.7 m/s
64%
23:00
19°
1012.7 hPa   15.3°
1
Windvlaag: -0.3 m/s
50%
 05:39     21:08    Daglengte: 15:29 Morgen
00:00
19°
1012.3 hPa   15.1°
1
Windvlaag: -0.6 m/s
39%
01:00
18°
1012.0 hPa   15.1°
1
Windvlaag: 0.1 m/s
30%
02:00
17°
1011.6 hPa   15.3°
2
Windvlaag: -0.8 m/s
39%
03:00
17°
1011.4 hPa   15.0°
2
Windvlaag: -1.3 m/s
18%
04:00
17°
1011.3 hPa   15.0°
2
Windvlaag: -1 m/s
43%
05:00
17°
1011.0 hPa   14.8°
3
Windvlaag: -1.7 m/s
54%
06:00
17°
1010.7 hPa   15.2°
3
Windvlaag: -2.6 m/s
20%
07:00
18°
1010.6 hPa   16.1°
3
Windvlaag: -3.1 m/s
11%
08:00
19°
1010.5 hPa   17.0°
3
Windvlaag: -3 m/s
10%
09:00
20°
1010.5 hPa   17.9°
3
Windvlaag: -1.6 m/s
15%
10:00
21°
1010.6 hPa   17.8°
2
Windvlaag: -0.1 m/s
9%
11:00
22°
1010.5 hPa   16.6°
2
Windvlaag: 3.2 m/s
8%
12:00
23°
1010.1 hPa   15.2°
2
Windvlaag: 3.6 m/s
9%
13:00
25°
1009.6 hPa   14.1°
1
Windvlaag: 3.7 m/s
28%
14:00
26°
1009.0 hPa   14.3°
1
Windvlaag: 2.1 m/s
37%
15:00
27°
1008.5 hPa
14%
14.8°
2
Windvlaag: 2 m/s
17%
16:00
27°
1008.1 hPa
18%
16.1°
2
Windvlaag: 2.5 m/s
16%
17:00
25°
1007.9 hPa
19%
20.0°
3
Windvlaag: 3.5 m/s
22%
18:00
25°
1008.1 hPa
20%
18.5°
3
Windvlaag: 5.4 m/s
29%
19:00
22°
1008.2 hPa 2.9 mm
20%
16.1°
3
Windvlaag: 6.9 m/s
60%
20:00
21°
1008.2 hPa 1.8 mm
20%
17.2°
2
Windvlaag: 4.5 m/s
45%
21:00
20°
1008.3 hPa 2.4 mm
20%
18.2°
2
Windvlaag: 0.7 m/s
66%
22:00
20°
1008.3 hPa 2.6 mm
28%
19.1°
2
Windvlaag: -2.6 m/s
69%
23:00
20°
1008.3 hPa 4.5 mm
58%
19.2°
2
Windvlaag: -2.9 m/s
78% warningclass
 05:41     21:05    Daglengte: 15:24 Dinsdag 16 Aug
00:00
19°
1008.1 hPa 3.3 mm
59%
19.1°
3
Windvlaag: -4.3 m/s
47% warningclass
01:00
20°
1008.1 hPa 1.8 mm
59%
19.1°
2
Windvlaag: -4.4 m/s
60% warningclass
02:00
20°
1007.6 hPa 2.2 mm
59%
19.0°
3
Windvlaag: -7 m/s
58%
03:00
19°
1007.3 hPa 2.0 mm
82%
18.9°
2
Windvlaag: -7 m/s
79%
04:00
19°
1006.9 hPa 1.0 mm
82%
19.0°
2
Windvlaag: -3.1 m/s
67% warningclass
05:00
19°
1006.6 hPa 2.5 mm
82%
19.0°
3
Windvlaag: -6 m/s
86% warningclass
06:00
19°
1006.4 hPa 1.4 mm
82%
18.8°
3
Windvlaag: -5.5 m/s
84%
07:00
19°
1006.3 hPa 1.1 mm
82%
18.7°
3
Windvlaag: -5 m/s
85% warningclass
08:00
19°
1006.2 hPa 1.7 mm
82%
18.7°
2
Windvlaag: -3 m/s
86% warningclass
09:00
20°
1006.3 hPa 2.0 mm
82%
18.6°
2
Windvlaag: -1.8 m/s
85% warningclass
10:00
20°
1006.2 hPa 1.5 mm
82%
18.7°
3
Windvlaag: 1.4 m/s
86% warningclass
11:00
20°
1006.4 hPa 2.3 mm
82%
18.6°
3
Windvlaag: 3.4 m/s
72% warningclass
12:00
20°
1006.2 hPa 2.2 mm
82%
18.7°
2
Windvlaag: 3.9 m/s
86% warningclass
13:00
20°
1006.0 hPa 1.7 mm
82%
18.5°
2
Windvlaag: 2.3 m/s
77% warningclass
14:00
20°
1005.8 hPa 0.8 mm
82%
18.6°
3
Windvlaag: 1.6 m/s
72% warningclass
15:00
20°
1005.6 hPa 0.6 mm
82%
18.5°
3
Windvlaag: 4.1 m/s
75% warningclass
16:00
20°
1005.5 hPa 0.8 mm
82%
18.4°
3
Windvlaag: 5.3 m/s
86% warningclass
17:00
20°
1005.6 hPa 1.6 mm
56%
15.9°
3
Windvlaag: 5.4 m/s
97% warningclass
18:00
20°
1005.4 hPa 1.2 mm
96%
16.5°
3
Windvlaag: 5.3 m/s
92%
19:00
19°
1005.4 hPa 1.2 mm
59%
16.9°
3
Windvlaag: 4.7 m/s
95%
20:00
19°
1005.5 hPa
96%
17.3°
3
Windvlaag: 5 m/s
86%
21:00
19°
1005.9 hPa 1.2 mm
99%
18.0°
2
Windvlaag: 5 m/s
95%
22:00
18°
1006.1 hPa 1.6 mm
96%
18.1°
3
Windvlaag: 5.3 m/s
100%
23:00
18°
1006.3 hPa 1.2 mm
87%
18.2°
3
Windvlaag: 5.3 m/s
95%
 05:44     21:02    Daglengte: 15:18 Woensdag 17 Aug
00:00
18°
1006.5 hPa
80%
18.0°
3
Windvlaag: 4.8 m/s
95%
01:00
18°
1006.8 hPa
38%
18.0°
3
Windvlaag: 4.9 m/s
95%
02:00
18°
1006.8 hPa
85%
17.8°
4
Windvlaag: 6.5 m/s
100%
03:00
18°
1006.8 hPa
36%
17.3°
4
Windvlaag: 7.2 m/s
100%
04:00
18°
1006.8 hPa
30%
16.8°
3
Windvlaag: 7.1 m/s
97%
05:00
18°
1006.8 hPa
40%
17.1°
4
Windvlaag: 6.7 m/s
85%
06:00
18°
1006.8 hPa
79%
17.2°
4
Windvlaag: 7.3 m/s
86%
07:00
18°
1007.1 hPa 1.4 mm
84%
16.3°
4
Windvlaag: 6.8 m/s
82%
08:00
18°
1007.7 hPa
51%
15.6°
4
Windvlaag: 5.8 m/s
78%
09:00
19°
1008.1 hPa
53%
15.3°
4
Windvlaag: 5.7 m/s
72%
10:00
19°
1008.5 hPa 1.2 mm
100%
14.9°
4
Windvlaag: 6.2 m/s
59%
11:00
20°
1008.9 hPa 1.4 mm
100%
15.6°
4
Windvlaag: 6.5 m/s
70%
12:00
20°
1008.4 hPa 1.4 mm
100%
16.3°
4
Windvlaag: 6.3 m/s
61%
13:00
20°
1008.7 hPa 1.3 mm
97%
16.7°
4
Windvlaag: 6.2 m/s
60%
14:00
20°
1009.0 hPa 1.3 mm
98%
16.8°
4
Windvlaag: 5.8 m/s
68%
15:00
20°
1009.2 hPa 1.3 mm
92%
16.8°
4
Windvlaag: 5.8 m/s
67%
16:00
20°
1009.3 hPa
88%
16.8°
4
Windvlaag: 5.8 m/s
60%
17:00
20°
1009.2 hPa
86%
16.7°
4
Windvlaag: 6.3 m/s
44%
18:00
19°
1009.3 hPa
42%
16.4°
4
Windvlaag: 6.8 m/s
55%
19:00
19°
1009.5 hPa
35%
16.8°
3
Windvlaag: 5.9 m/s
54%
20:00
19°
1009.9 hPa
38%
16.7°
3
Windvlaag: 4 m/s
57%
Temp/Neerslag /Baro Onweer/Dauwpunt
    Temp Baro Neerslag Dauwpunt Wind Bewolking  
 05:37     21:10    Daglengte: 15:33 Vandaag
23:00
19°
1012.7 hPa   15.3°
1
50%
 05:39     21:08    Daglengte: 15:29 Morgen
02:00
17°
1011.6 hPa   15.3°
2
39%
05:00
17°
1011.0 hPa   14.8°
3
54%
08:00
19°
1010.5 hPa   17.0°
3
10%
11:00
22°
1010.5 hPa   16.6°
2
8%
14:00
26°
1009.0 hPa   14.3°
1
37%
17:00
25°
1007.9 hPa   20.0°
3
22%
20:00
21°
1008.2 hPa 4.7 mm 17.2°
2
45%
23:00
20°
1008.3 hPa 9.4 mm 19.2°
2
78% warningclass
 05:41     21:05    Daglengte: 15:24 Dinsdag 16 Aug
02:00
20°
1007.6 hPa 7.2 mm 19.0°
3
58%
05:00
19°
1006.6 hPa 5.4 mm 19.0°
3
86% warningclass
08:00
19°
1006.2 hPa 4.2 mm 18.7°
2
86% warningclass
11:00
20°
1006.4 hPa 5.7 mm 18.6°
3
72% warningclass
14:00
20°
1005.8 hPa 4.7 mm 18.6°
3
72% warningclass
17:00
20°
1005.6 hPa 3.0 mm 15.9°
3
97% warningclass
20:00
19°
1005.5 hPa 2.4 mm 17.3°
3
86%
23:00
18°
1006.3 hPa 4.0 mm 18.2°
3
95%
 05:44     21:02    Daglengte: 15:18 Woensdag 17 Aug
02:00
18°
1006.8 hPa   17.8°
4
100%
05:00
18°
1006.8 hPa   17.1°
4
85%
08:00
18°
1007.7 hPa 1.4 mm 15.6°
4
78%
11:00
20°
1008.9 hPa 2.6 mm 15.6°
4
70%
14:00
20°
1009.0 hPa 4.1 mm 16.8°
4
68%
17:00
20°
1009.2 hPa 1.3 mm 16.7°
4
44%
20:00
19°
1009.9 hPa   16.7°
3
57%
23:00
16°
1011.1 hPa 12.8 mm 14.5°
3
1%
 05:46     21:00    Daglengte: 15:14 Donderdag 18 Aug
02:00
16°
1011.8 hPa 12.8 mm 13.2°
1
1%
05:00
15°
1012.3 hPa 12.8 mm 13.2°
3
1%
08:00
16°
1013.4 hPa 12.8 mm 13.2°
6
1%
11:00
19°
1013.4 hPa 12.8 mm 12.8°
5
0%
14:00
21°
1012.7 hPa 12.9 mm 14.4°
2
1%
17:00
22°
1011.7 hPa 13.1 mm 15.3°
2
1%
20:00
20°
1011.2 hPa 13.1 mm 16.2°
1
1%
23:00
19°
1010.9 hPa 13.1 mm 15.9°
1
1%
 05:48     20:57    Daglengte: 15:09 Vrijdag 19 Aug
02:00
17°
1010.6 hPa 13.2 mm 15.9°
2
0%
05:00
16°
1010.5 hPa 13.4 mm 15.3°
2
0%
08:00
17°
1010.4 hPa 13.9 mm 16.2°
3
0%
11:00
20°
1010.1 hPa 14.2 mm 17.9°
2
1%
14:00
20°
1009.6 hPa 14.7 mm 18.1°
1
1%
17:00
18°
1009.1 hPa 18.4 mm 17.6°
3
1%
20:00
18°
1008.0 hPa 20.2 mm 16.9°
3
1%
23:00
17°
1007.7 hPa 20.5 mm 15.4°
3
1%
 05:51     20:54    Daglengte: 15:03 Zaterdag 20 Aug
02:00
16°
1007.3 hPa 20.5 mm 13.9°
2
1%
05:00
16°
1007.1 hPa 20.5 mm 13.5°
1
0%
08:00
16°
1007.0 hPa 20.5 mm 13.0°
0
1%
11:00
18°
1007.2 hPa 20.5 mm 13.3°
2
1%
14:00
20°
1007.1 hPa 20.5 mm 14.0°
3
1%
20:00
17°
1005.5 hPa 20.5 mm 13.6°
2
1%
23:00
16°
1005.3 hPa 20.5 mm 13.1°
1
1%
 05:53     20:51    Daglengte: 14:58 Zondag 21 Aug
02:00
15°
1004.6 hPa 20.5 mm 11.3°
2
1%
05:00
15°
1004.0 hPa 20.5 mm 11.0°
3
1%
08:00
16°
1003.4 hPa 20.5 mm 11.8°
4
1%
11:00
19°
1002.8 hPa 20.5 mm 13.1°
4
1%
14:00
21°
1002.5 hPa 20.5 mm 12.6°
4
1%
17:00
18°
1003.0 hPa 20.7 mm 13.4°
1
1%
20:00
17°
1003.0 hPa 20.8 mm 12.9°
2
1%
23:00
16°
1003.4 hPa   11.5°
2
1%
 05:55     20:48    Daglengte: 14:53 Maandag 22 Aug
02:00
15°
1003.6 hPa 42.9 mm 10.7°
1
1%
08:00
14°
1004.5 hPa 44.4 mm 12.3°
3
1%
14:00
15°
1006.5 hPa 48.5 mm 10.1°
3
1%
20:00
16°
1006.8 hPa 48.8 mm 11.1°
4
1%
 05:57     20:46    Daglengte: 14:49 Dinsdag 23 Aug
02:00
16°
1005.1 hPa 52.7 mm 14.6°
5
1%
08:00
15°
1005.9 hPa 57.4 mm 13.9°
3
1%
14:00
19°
1007.6 hPa 57.4 mm 14.7°
5
1%
20:00
19°
1008.0 hPa 57.4 mm 14.3°
6
0%
 06:00     20:43    Daglengte: 14:43 Woensdag 24 Aug
02:00
14°
1010.0 hPa 57.4 mm 8.5°
4
0%
08:00
14°
1013.1 hPa 57.4 mm 7.1°
2
0%
14:00
18°
1015.6 hPa 0.2 mm 12.3°
2
57%
20:00
17°
1015.3 hPa 0.1 mm 12.2°
2
54%
 06:02     20:40    Daglengte: 14:38 Donderdag 25 Aug
02:00
15°
1016.5 hPa   11.2°
1
45%
08:00
14°
1016.9 hPa   10.9°
1
54%
14:00
18°
1017.1 hPa 0.2 mm 12.2°
1
47%
20:00
17°
1017.0 hPa 0.1 mm 11.7°
1
40%
 06:04     20:37    Daglengte: 14:33 Vrijdag 26 Aug
02:00
14°
1018.4 hPa 0.8 mm 10.6°
0
44%
08:00
14°
1018.8 hPa 0.3 mm 10.5°
1
48%
14:00
18°
1018.5 hPa 0.1 mm 11.8°
1
50%
20:00
17°
1017.7 hPa 0.2 mm 11.8°
1
50%
 06:07     20:34    Daglengte: 14:27 Zaterdag 27 Aug
02:00
14°
1018.7 hPa 0.2 mm 10.9°
1
51%
08:00
14°
1018.7 hPa 0.2 mm 10.8°
1
56%
14:00
17°
1017.9 hPa 0.3 mm 11.9°
1
48%
20:00
16°
1016.8 hPa 0.4 mm 12.1°
1
39%
 06:09     20:31    Daglengte: 14:22 Zondag 28 Aug
02:00
14°
1017.6 hPa 0.7 mm 11.1°
2
46%
08:00
14°
1017.6 hPa 0.4 mm 10.8°
2
52%
14:00
18°
1017.1 hPa 0.3 mm 12.1°
0
49%
20:00
17°
1016.4 hPa 0.3 mm 12.0°
1
43%
 06:11     20:28    Daglengte: 14:17 Maandag 29 Aug
02:00
14°
1017.7 hPa 0.2 mm 10.9°
1
44%
08:00
14°
1018.1 hPa 0.1 mm 10.2°
2
55%
14:00
18°
1018.0 hPa 0.2 mm 11.1°
0
41%
20:00
16°
1017.6 hPa 0.2 mm 11.1°
1
51%
  CAPE Lifted Index Hail Supercell Tornado SRH 3km CL BTM PRES CL TOP PRES Swiss DWD icon SMHI TS
 05:37     21:10    Daglengte: 15:33 Vandaag
21:00 0 J/kg 3.0 K 0 % 0 % 0 % 0 m²/s² 0 0 4.26 3
22:00 0 J/kg 3.2 K 0 % 0 % 0 % 0 m²/s² 0 0 4.52 3
23:00 0 J/kg 3.9 K 0 % 0 % 0 % 0 m²/s² 0 0 5.55 3
 05:39     21:08    Daglengte: 15:29 Morgen
00:00 0 J/kg 3.7 K 0 % 0 % 0 % 0 m²/s² 0 0 5.08 3
01:00 0 J/kg 1.5 K 0 % 0 % 0 % 0 m²/s² 0 0 2.82 3
02:00 0 J/kg 0.8 K 0 % 0 % 0 % 0 m²/s² 0 0 2.27 3
03:00 0 J/kg 1.0 K 0 % 0 % 0 % 0 m²/s² 0 0 2.53 2
04:00 0 J/kg 0.8 K 0 % 0 % 0 % 0 m²/s² 0 0 2.39 3
05:00 0 J/kg 0.7 K 0 % 0 % 0 % 0 m²/s² 0 0 2.41 3
06:00 0 J/kg 0.4 K 0 % 0 % 0 % 0 m²/s² 0 0 2.92 2
07:00 0 J/kg 0.2 K 0 % 0 % 0 % 0 m²/s² 0 0 3.29 1
08:00 0 J/kg 1.2 K 0 % 0 % 0 % 0 m²/s² 0 0 4.65 0
09:00 0 J/kg 1.2 K 0 % 0 % 0 % 0 m²/s² 0 0 4.92 1
10:00 0 J/kg 1.4 K 0 % 0 % 0 % 0 m²/s² 0 0 5.87 1
11:00 0 J/kg 1.8 K 0 % 0 % 0 % 0 m²/s² 0 0 6.87 1
12:00 0 J/kg 1.8 K 0 % 0 % 0 % 0 m²/s² 0 0 7.14 1
13:00 0 J/kg 2.1 K 0 % 0 % 0 % 0 m²/s² 0 0 6.69 3
14:00 0 J/kg 0.9 K 0 % 0 % 0 % 0 m²/s² 0 0 5.16 3
15:00 63 J/kg -1.4 K 0 % 0 % 0 % 0 m²/s² 0 0 2.65 2
16:00 242 J/kg -1.9 K 0 % 0 % 0 % 0 m²/s² 0 0 1.94 2
17:00 404 J/kg -2.2 K 0 % 0 % 0 % 0 m²/s² 0 0 1.37 80
18:00 527 J/kg -2.6 K 0 % 0 % 0 % 0 m²/s² 0 0 0.94 80
19:00 565 J/kg -3.0 K 0 % 0 % 0 % 0 m²/s² 0 0 0.75 80
20:00 562 J/kg -3.8 K 0 % 0 % 0 % 0 m²/s² 0 0 -0.08 95
21:00 740 J/kg -4.3 K 0 % 0 % 0 % 0 m²/s² 0 0 -0.04 80
22:00 1339 J/kg -4.6 K 0 % 0 % 0 % 0 m²/s² 0 0 -1.42 95
23:00 477 J/kg -3.3 K 0 % 0 % 0 % 0 m²/s² 0 0 -1.17 95
 05:41     21:05    Daglengte: 15:24 Dinsdag 16 Aug
00:00 153 J/kg -2.5 K 0 % 0 % 0 % 0 m²/s² 0 0 -1.54 95
01:00 79 J/kg -2.6 K 0 % 0 % 0 % 0 m²/s² 0 0 -1.73 95
02:00 161 J/kg -3.9 K 0 % 0 % 0 % 0 m²/s² 0 0 -3.45 80
03:00 290 J/kg -4.0 K 0 % 0 % 0 % 0 m²/s² 0 0 -2.83 3
04:00 376 J/kg -3.5 K 0 % 0 % 0 % 0 m²/s² 0 0 -2.18 95
05:00 275 J/kg -2.3 K 0 % 0 % 0 % 0 m²/s² 0 0 -1.13 95
06:00 120 J/kg -1.6 K 0 % 0 % 0 % 0 m²/s² 0 0 -0.22 80
07:00 13 J/kg -1.9 K 0 % 0 % 0 % 0 m²/s² 0 0 -1.12 95
08:00 0 J/kg -2.0 K 0 % 0 % 0 % 0 m²/s² 0 0 -1.55 95
09:00 73 J/kg -2.0 K 0 % 0 % 0 % 0 m²/s² 0 0 -1.43 95
10:00 100 J/kg -2.1 K 0 % 0 % 0 % 0 m²/s² 0 0 -2.07 95
11:00 368 J/kg -1.9 K 0 % 0 % 0 % 0 m²/s² 0 0 -1.03 95
12:00 510 J/kg -3.0 K 0 % 0 % 0 % 0 m²/s² 0 0 -3 95
13:00 759 J/kg -3.1 K 0 % 0 % 0 % 0 m²/s² 0 0 -2.29 80
14:00 426 J/kg -3.6 K 0 % 0 % 0 % 0 m²/s² 0 0 -3.51 3
15:00 702 J/kg -3.9 K 0 % 0 % 0 % 0 m²/s² 0 0 -3.6 80
16:00 493 J/kg -3.3 K 0 % 0 % 0 % 0 m²/s² 0 0 -3.27 3
17:00 801 J/kg -3.8 K 0 % 0 % 0 % 0 m²/s² 0 0 -2.51 3
18:00 486 J/kg -3.6 K 0 % 0 % 0 % 0 m²/s² 0 0 -0.12 3
19:00 584 J/kg -3.7 K 0 % 0 % 0 % 0 m²/s² 0 0 -0.67 3
20:00 546 J/kg -2.5 K 0 % 0 % 0 % 0 m²/s² 0 0 0.89 3
21:00 76 J/kg -1.5 K 0 % 0 % 0 % 0 m²/s² 0 0 0.54 80
22:00 1 J/kg 1.2 K 0 % 0 % 0 % 0 m²/s² 0 0 3.39 80
23:00 3 J/kg 0.6 K 0 % 0 % 0 % 0 m²/s² 0 0 3.15 3
 05:44     21:02    Daglengte: 15:18 Woensdag 17 Aug
00:00 6 J/kg 0.2 K 0 % 0 % 0 % 0 m²/s² 0 0 2.6 3
01:00 0 J/kg -0.1 K 0 % 0 % 0 % 0 m²/s² 0 0 2.09 3
02:00 3 J/kg 0.0 K 0 % 0 % 0 % 0 m²/s² 0 0 1.92 3
03:00 0 J/kg 0.3 K 0 % 0 % 0 % 0 m²/s² 0 0 2.1 3
04:00 0 J/kg 1.3 K 0 % 0 % 0 % 0 m²/s² 0 0 2.77 3
05:00 2 J/kg 1.4 K 0 % 0 % 0 % 0 m²/s² 0 0 2.45 3
06:00 1 J/kg 1.8 K 0 % 0 % 0 % 0 m²/s² 0 0 2.46 3
07:00 0 J/kg 2.4 K 0 % 0 % 0 % 0 m²/s² 0 0 3.36 3
08:00 2 J/kg 2.7 K 0 % 0 % 0 % 0 m²/s² 0 0 3.9 3
09:00 4 J/kg 2.1 K 0 % 0 % 0 % 0 m²/s² 0 0 3.36 3
10:00 0 J/kg 1.8 K 0 % 0 % 0 % 0 m²/s² 0 0 3 3
11:00 17 J/kg 1.5 K 0 % 0 % 0 % 0 m²/s² 0 0 2.64 80
12:00 8 J/kg 1.5 K 0 % 0 % 0 % 0 m²/s² 0 0 2.7 80
13:00 18 J/kg 1.2 K 0 % 0 % 0 % 0 m²/s² 0 0 2.46 80
14:00 24 J/kg 0.6 K 0 % 0 % 0 % 0 m²/s² 0 0 2.19 80
15:00 45 J/kg 0.2 K 0 % 0 % 0 % 0 m²/s² 0 0 1.91 3
16:00 17 J/kg 0.1 K 0 % 0 % 0 % 0 m²/s² 0 0 1.93 3
17:00 0 J/kg 0.4 K 0 % 0 % 0 % 0 m²/s² 0 0 2.05 2
18:00 0 J/kg 0.9 K 0 % 0 % 0 % 0 m²/s² 0 0 2.67 3
19:00 0 J/kg 1.0 K 0 % 0 % 0 % 0 m²/s² 0 0 2.95 3
20:00 0 J/kg 1.3 K 0 % 0 % 0 % 0 m²/s² 0 0 2.95 3
Temp Baro Wind Neerslag
  EWN Forecast EWN WRFDA DWD ICON FMI HIRLAM MET Norway GFS
 05:37     21:10    Daglengte: 15:33 Vandaag
23:00 19.0° 1012.7 hPa 0.9 m/s 0.0 mm 18.6° 1011.2 hPa 1.6 m/s 0.0 mm 18.5° 1012.8 hPa 0.8 m/s 0.0 mm 18.5° 1013.0 hPa 0.6 m/s 0.0 mm 18.8° 1012.1 hPa 0.1 m/s
 05:39     21:08    Daglengte: 15:29 Morgen
02:00 17.2° 1011.6 hPa 1.7 m/s 0.0 mm 18.0° 1011.0 hPa 2.0 m/s 0.0 mm 16.2° 1011.6 hPa 1.8 m/s 0.0 mm 16.9° 1012.0 hPa 1.6 m/s 0.0 mm 17.7° 1011.7 hPa 1.4 m/s
05:00 17.1° 1011.0 hPa 2.7 m/s 0.0 mm 16.8° 1009.9 hPa 3.5 m/s 0.0 mm 16.9° 1011.2 hPa 1.9 m/s 0.0 mm 16.4° 1011.1 hPa 2.9 m/s 0.0 mm 17.0° 1010.7 hPa 3.3 m/s
08:00 19.3° 1010.5 hPa 2.6 m/s 0.0 mm 18.6° 1009.7 hPa 2.5 m/s 0.0 mm 19.6° 1010.8 hPa 2.6 m/s 0.0 mm 18.2° 1010.2 hPa 2.3 m/s 0.0 mm 18.3° 1010.7 hPa 2.7 m/s
11:00 22.0° 1010.5 hPa 2.0 m/s 0.0 mm 21.7° 1009.4 hPa 1.6 m/s 0.0 mm 22.0° 1010.9 hPa 2.4 m/s 0.0 mm 21.6° 1010.1 hPa 1.6 m/s 0.0 mm 20.6° 1010.6 hPa 2.2 m/s
14:00 26.0° 1009.0 hPa 1.1 m/s 0.0 mm 24.6° 1008.3 hPa 1.8 m/s 0.0 mm 25.3° 1009.7 hPa 0.9 m/s 0.0 mm 26.1° 1008.8 hPa 1.5 m/s 0.0 mm 23.5° 1009.6 hPa 0.4 m/s
17:00 25.3° 1007.9 hPa 3.2 m/s 0.0 mm 25.2° 1006.9 hPa 3.5 m/s 0.0 mm 24.8° 1008.8 hPa 0.9 m/s 0.3 mm 24.8° 1007.4 hPa 3.6 m/s 0.0 mm 24.9° 1007.7 hPa 0.4 m/s
20:00 21.2° 1008.2 hPa 1.8 m/s 4.7 mm 24.1° 1006.8 hPa 1.0 m/s 0.0 mm 20.6° 1009.0 hPa 1.9 m/s 2.5 mm 23.2° 1006.8 hPa 2.5 m/s 0.0 mm 22.5° 1007.0 hPa 1.8 m/s
23:00 19.6° 1008.3 hPa 2.0 m/s 9.4 mm 20.8° 1007.2 hPa 3.5 m/s 0.0 mm 19.5° 1008.5 hPa 3.2 m/s 7.6 mm 19.3° 1007.5 hPa 0.6 m/s 0.0 mm 19.6° 1007.5 hPa 1.9 m/s
 05:41     21:05    Daglengte: 15:24 Dinsdag 16 Aug
02:00 19.6° 1007.6 hPa 2.6 m/s 7.2 mm 20.3° 1006.7 hPa 2.2 m/s 0.3 mm 19.6° 1007.6 hPa 2.8 m/s 7.4 mm 19.6° 1007.3 hPa 1.3 m/s 0.0 mm 17.8° 1008.5 hPa 1.7 m/s
05:00 19.3° 1006.6 hPa 3.1 m/s 5.4 mm 18.9° 1005.4 hPa 4.2 m/s 1.3 mm 19.4° 1006.8 hPa 1.6 m/s 4.7 mm 19.3° 1006.0 hPa 3.1 m/s 0.0 mm 17.9° 1007.4 hPa 3.2 m/s
08:00 19.5° 1006.2 hPa 2.3 m/s 4.2 mm 20.2° 1004.8 hPa 2.6 m/s 2.5 mm 19.4° 1006.5 hPa 1.4 m/s 4.2 mm 19.5° 1005.2 hPa 2.8 m/s 0.0 mm 18.4° 1007.2 hPa 3.1 m/s
11:00 20.0° 1006.4 hPa 2.6 m/s 5.7 mm 22.3° 1004.3 hPa 3.2 m/s 4.3 mm 19.6° 1007.0 hPa 2.3 m/s 5.1 mm 20.5° 1004.5 hPa 2.7 m/s 0.0 mm 20.1° 1007.2 hPa 1.7 m/s
14:00 20.2° 1005.8 hPa 2.5 m/s 4.7 mm 21.0° 1004.5 hPa 3.0 m/s 5.5 mm 19.8° 1006.5 hPa 2.5 m/s 1.6 mm 22.5° 1002.9 hPa 3.0 m/s 0.0 mm 20.6° 1006.5 hPa 2.5 m/s
17:00 20.2° 1005.6 hPa 3.0 m/s 3.0 mm 23.0° 1003.0 hPa 4.4 m/s 9.0 mm 20.0° 1006.0 hPa 1.8 m/s 0.4 mm 20.0° 1005.6 hPa 3.0 m/s
20:00 19.1° 1005.5 hPa 2.7 m/s 2.4 mm 20.4° 1003.1 hPa 3.3 m/s 9.8 mm 19.0° 1005.6 hPa 2.2 m/s 0.0 mm 19.3° 1006.4 hPa 3.8 m/s
23:00 18.3° 1006.3 hPa 2.9 m/s 4.0 mm 17.8° 1004.2 hPa 5.0 m/s 9.9 mm 18.4° 1006.4 hPa 2.5 m/s 1.1 mm 18.1° 1007.2 hPa 4.1 m/s
 05:44     21:02    Daglengte: 15:18 Woensdag 17 Aug
02:00 18.2° 1006.8 hPa 3.7 m/s 0.0 mm 17.8° 1004.8 hPa 5.1 m/s 10.1 mm 18.2° 1006.8 hPa 3.5 m/s 0.0 mm 17.7° 1008.0 hPa 4.5 m/s
05:00 17.8° 1006.8 hPa 3.8 m/s 0.0 mm 16.6° 1005.8 hPa 4.6 m/s 10.2 mm 18.1° 1006.6 hPa 3.1 m/s 0.0 mm 17.6° 1008.5 hPa 4.6 m/s
08:00 18.3° 1007.7 hPa 3.5 m/s 1.4 mm 18.3° 1007.4 hPa 3.8 m/s 10.2 mm 18.6° 1007.1 hPa 3.4 m/s 0.3 mm 19.0° 1009.3 hPa 4.8 m/s
11:00 19.5° 1008.9 hPa 4.0 m/s 2.6 mm 20.0° 1008.6 hPa 5.2 m/s 10.2 mm 19.6° 1008.1 hPa 3.7 m/s 0.5 mm 19.9° 1010.0 hPa 5.0 m/s
14:00 19.9° 1009.0 hPa 4.0 m/s 4.1 mm 19.8° 1009.7 hPa 5.0 m/s 10.2 mm 20.0° 1008.8 hPa 3.8 m/s 1.0 mm 21.2° 1010.2 hPa 6.0 m/s
17:00 20.0° 1009.2 hPa 3.8 m/s 1.3 mm 19.7° 1009.8 hPa 4.2 m/s 10.2 mm 20.1° 1009.1 hPa 3.7 m/s 0.3 mm 20.4° 1010.5 hPa 6.0 m/s
20:00 18.5° 1009.9 hPa 2.8 m/s 0.0 mm 17.9° 1009.9 hPa 2.6 m/s 10.2 mm 18.7° 1010.0 hPa 2.9 m/s 0.0 mm 18.2° 1010.3 hPa 4.4 m/s
23:00 16.5° 1011.1 hPa 3.0 m/s 12.8 mm 16.5° 1011.1 hPa 3.0 m/s 12.8 mm
 05:46     21:00    Daglengte: 15:14 Donderdag 18 Aug
02:00 15.9° 1011.8 hPa 0.9 m/s 12.8 mm 15.9° 1011.7 hPa 0.9 m/s 12.8 mm
05:00 15.0° 1012.3 hPa 2.6 m/s 12.8 mm 15.0° 1012.3 hPa 2.6 m/s 12.8 mm
08:00 16.3° 1013.4 hPa 5.8 m/s 12.8 mm 16.3° 1013.4 hPa 5.8 m/s 12.8 mm
11:00 19.2° 1013.4 hPa 4.9 m/s 12.8 mm 19.2° 1013.4 hPa 4.9 m/s 12.8 mm
14:00 20.6° 1012.7 hPa 2.4 m/s 12.9 mm 20.6° 1012.7 hPa 2.4 m/s 12.9 mm
17:00 22.4° 1011.7 hPa 1.5 m/s 13.1 mm 22.4° 1011.7 hPa 1.5 m/s 13.1 mm
20:00 20.3° 1011.2 hPa 0.7 m/s 13.1 mm 20.3° 1011.2 hPa 0.7 m/s 13.1 mm
23:00 18.8° 1010.9 hPa 1.4 m/s 13.1 mm 18.8° 1010.9 hPa 1.4 m/s 13.1 mm
 05:48     20:57    Daglengte: 15:09 Vrijdag 19 Aug
02:00 17.4° 1010.6 hPa 1.6 m/s 13.2 mm 17.4° 1010.6 hPa 1.6 m/s 13.2 mm
05:00 16.5° 1010.5 hPa 2.0 m/s 13.4 mm 16.5° 1010.4 hPa 2.0 m/s 13.4 mm
08:00 17.5° 1010.4 hPa 2.5 m/s 13.9 mm 17.5° 1010.4 hPa 2.5 m/s 13.9 mm
11:00 20.1° 1010.1 hPa 2.3 m/s 14.2 mm 20.1° 1010.1 hPa 2.3 m/s 14.2 mm
14:00 20.3° 1009.6 hPa 0.7 m/s 14.7 mm 20.3° 1009.6 hPa 0.7 m/s 14.7 mm
17:00 18.3° 1009.1 hPa 2.6 m/s 18.4 mm 18.3° 1009.1 hPa 2.6 m/s 18.4 mm
20:00 17.6° 1008.0 hPa 2.8 m/s 20.2 mm 17.6° 1008.0 hPa 2.8 m/s 20.2 mm
23:00 16.7° 1007.7 hPa 2.7 m/s 20.5 mm 16.7° 1007.7 hPa 2.7 m/s 20.5 mm
 05:51     20:54    Daglengte: 15:03 Zaterdag 20 Aug
02:00 16.4° 1007.3 hPa 1.8 m/s 20.5 mm 16.4° 1007.3 hPa 1.7 m/s 20.5 mm
05:00 15.7° 1007.1 hPa 0.7 m/s 20.5 mm 15.7° 1007.1 hPa 0.7 m/s 20.5 mm
08:00 16.4° 1007.0 hPa 0.2 m/s 20.5 mm 16.4° 1007.0 hPa 0.2 m/s 20.5 mm
11:00 18.3° 1007.2 hPa 1.5 m/s 20.5 mm 18.3° 1007.2 hPa 1.5 m/s 20.5 mm
14:00 19.6° 1007.1 hPa 2.6 m/s 20.5 mm 19.6° 1007.1 hPa 2.6 m/s 20.5 mm
20:00 17.4° 1005.5 hPa 2.2 m/s 20.5 mm 17.4° 1005.5 hPa 2.2 m/s 20.5 mm
23:00 15.9° 1005.3 hPa 1.2 m/s 20.5 mm 15.9° 1005.3 hPa 1.2 m/s 20.5 mm
 05:53     20:51    Daglengte: 14:58 Zondag 21 Aug
02:00 15.4° 1004.6 hPa 2.5 m/s 20.5 mm 15.4° 1004.6 hPa 2.5 m/s 20.5 mm
05:00 14.8° 1004.0 hPa 3.5 m/s 20.5 mm 14.8° 1004.0 hPa 3.5 m/s 20.5 mm
08:00 16.1° 1003.4 hPa 3.9 m/s 20.5 mm 16.1° 1003.4 hPa 3.9 m/s 20.5 mm
11:00 19.3° 1002.8 hPa 4.0 m/s 20.5 mm 19.3° 1002.8 hPa 4.0 m/s 20.5 mm
14:00 21.1° 1002.5 hPa 4.1 m/s 20.5 mm 21.1° 1002.5 hPa 4.1 m/s 20.5 mm
17:00 18.3° 1003.0 hPa 0.8 m/s 20.7 mm 18.3° 1003.0 hPa 0.8 m/s 20.7 mm
20:00 17.3° 1003.0 hPa 2.3 m/s 20.8 mm 17.3° 1003.0 hPa 2.3 m/s 20.8 mm
23:00 16.4° 1003.4 hPa 1.6 m/s 21.3 mm 16.4° 1003.4 hPa 1.6 m/s 21.3 mm
 05:55     20:48    Daglengte: 14:53 Maandag 22 Aug
02:00 14.7° 1003.6 hPa 0.6 m/s 21.6 mm 14.7° 1003.6 hPa 0.6 m/s 21.6 mm
08:00 14.5° 1004.5 hPa 2.8 m/s 22.5 mm 14.5° 1004.5 hPa 2.8 m/s 22.5 mm
14:00 15.5° 1006.5 hPa 2.7 m/s 24.4 mm 15.5° 1006.5 hPa 2.7 m/s 24.4 mm
20:00 16.1° 1006.8 hPa 4.2 m/s 24.4 mm 16.1° 1006.8 hPa 4.2 m/s 24.4 mm
 05:57     20:46    Daglengte: 14:49 Dinsdag 23 Aug
02:00 15.6° 1005.1 hPa 4.8 m/s 27.4 mm 15.6° 1005.1 hPa 4.8 m/s 27.4 mm
08:00 14.8° 1005.9 hPa 2.6 m/s 28.7 mm 14.8° 1005.9 hPa 2.6 m/s 28.7 mm
14:00 19.0° 1007.6 hPa 4.6 m/s 28.7 mm 19.0° 1007.6 hPa 4.6 m/s 28.7 mm
20:00 18.7° 1008.0 hPa 5.7 m/s 28.7 mm 18.7° 1008.0 hPa 5.7 m/s 28.7 mm
 06:00     20:43    Daglengte: 14:43 Woensdag 24 Aug
02:00 13.8° 1010.0 hPa 3.8 m/s 28.7 mm 13.8° 1010.0 hPa 3.8 m/s 28.7 mm
08:00 13.9° 1013.1 hPa 2.3 m/s 28.7 mm 13.9° 1013.1 hPa 2.3 m/s 28.7 mm
14:00 17.5° 1015.6 hPa 2.4 m/s 0.2 mm
20:00 17.0° 1015.3 hPa 2.2 m/s 0.1 mm
 06:02     20:40    Daglengte: 14:38 Donderdag 25 Aug
02:00 14.8° 1016.5 hPa 1.2 m/s 0.0 mm
08:00 14.5° 1016.9 hPa 0.6 m/s 0.0 mm
14:00 17.9° 1017.1 hPa 1.3 m/s 0.2 mm
20:00 16.7° 1017.0 hPa 1.4 m/s 0.1 mm
 06:04     20:37    Daglengte: 14:33 Vrijdag 26 Aug
02:00 14.3° 1018.4 hPa 0.5 m/s 0.8 mm
08:00 14.0° 1018.8 hPa 1.4 m/s 0.3 mm
14:00 17.5° 1018.5 hPa 1.0 m/s 0.1 mm
20:00 16.6° 1017.7 hPa 1.3 m/s 0.2 mm
 06:07     20:34    Daglengte: 14:27 Zaterdag 27 Aug
02:00 14.4° 1018.7 hPa 0.9 m/s 0.2 mm
08:00 14.2° 1018.7 hPa 1.4 m/s 0.2 mm
14:00 17.3° 1017.9 hPa 0.8 m/s 0.3 mm
20:00 16.3° 1016.8 hPa 1.2 m/s 0.4 mm
 06:09     20:31    Daglengte: 14:22 Zondag 28 Aug
02:00 14.3° 1017.6 hPa 1.7 m/s 0.7 mm
08:00 14.0° 1017.6 hPa 2.3 m/s 0.4 mm
14:00 17.5° 1017.1 hPa 0.3 m/s 0.3 mm
20:00 16.6° 1016.4 hPa 0.9 m/s 0.3 mm
 06:11     20:28    Daglengte: 14:17 Maandag 29 Aug
02:00 14.4° 1017.7 hPa 1.0 m/s 0.2 mm
08:00 13.9° 1018.1 hPa 2.0 m/s 0.1 mm
14:00 17.7° 1018.0 hPa 0.3 m/s 0.2 mm
20:00 16.3° 1017.6 hPa 1.0 m/s 0.2 mm
FMI Hirlam - 7.5 km EWN WRFDA - 12 km DWD ICON - 7 km GFS - 25 km Basiskaart






























































Updatetijd (Europe/Amsterdam) Resolutie Lengte Stap
FMI Hirlam 20:00, 02:00, 08:00, 14:00 7.5 km 49h 1h
EWN WRFDA 16:30, 22:30, 04:30, 10:30 12 km 73h 1h
DWD ICON 18:00, 00:00, 06:00, 12:00 7 km 75h 1h
GFS 19:45, 01:45, 07:45, 13:45 25 km 237h 3h
30+ mm
25-30 mm
20-25 mm
15-20 mm
10-15 mm
6-10 mm
4-6 mm
2-4 mm
1-2 mm
0.5-1 mm
0.2-0.5 mm
0.1-0.2 mm
30+ mm
25-30 mm
20-25 mm
15-20 mm
10-15 mm
6-10 mm
4-6 mm
2-4 mm
1-2 mm
0.5-1 mm
0.2-0.5 mm
0.1-0.2 mm
Sneeuwval
Natte sneeuw
Hagel
Vorst
30+ mm
25-30 mm
20-25 mm
15-20 mm
10-15 mm
6-10 mm
4-6 mm
2-4 mm
1-2 mm
0.5-1 mm
0.2-0.5 mm
0.1-0.2 mm
Sneeuwval
Natte sneeuw
Hagel
Vorst
Onweer
50 mm
40 mm
30 mm
26 mm
22 mm
18 mm
14 mm
10 mm
9 mm
8 mm
7 mm
6 mm
5 mm
4.5 mm
4 mm
3.5 mm
3 mm
2.5 mm
2 mm
1.5 mm
1 mm
0.8 mm
0.6 mm
0.4 mm
0.2 mm
0.05 mm
35°
30°
25°
20°
15°
10°
-5°
-10°
-15°
-20°
-25°
-30°
-35°
33> m/s
29 m/s
25 m/s
21 m/s
17 m/s
14 m/s
11 m/s
8 m/s
5 m/s
3 m/s
0 m/s
2600 J/kg
2400 J/kg
2200 J/kg
2000 J/kg
1800 J/kg
1600 J/kg
1400 J/kg
1200 J/kg
1000 J/kg
800 J/kg
600 J/kg
400 J/kg
200 J/kg
70 dBZ
65 dBZ
60 dBZ
55 dBZ
50 dBZ
45 dBZ
40 dBZ
35 dBZ
30 dBZ
25 dBZ
20 dBZ
15 dBZ
10 dBZ
5 dBZ
-1 K
-2 K
-3 K
-4 K
-5 K
-6 K
-7 K
-8 K
-9 K